| time (UTC) | temp F | wind direction | speed MPH | gust MPH | rain 1hr in | rain 24hr in | rain mn in | humidity % | barometer mb |
| 20260505022552 | 52 | 30 | 2.0 | 6.0 | 0.00 | 0.00 | 0.00 | 41 | 1010.7 |
| 20260505022051 | 52 | 71 | 2.0 | 6.0 | 0.00 | 0.00 | 0.00 | 40 | 1010.6 |
| 20260505021553 | 53 | 11 | 2.0 | 8.0 | 0.00 | 0.00 | 0.00 | 40 | 1010.5 |
| 20260505021053 | 53 | 23 | 2.0 | 9.0 | 0.00 | 0.00 | 0.00 | 39 | 1010.5 |
| 20260505020554 | 53 | 27 | 1.0 | 9.0 | 0.00 | 0.00 | 0.00 | 40 | 1010.3 |
| 20260505020105 | 53 | 0 | 2.0 | 9.0 | 0.00 | 0.00 | 0.00 | 41 | 1010.4 |
| 20260505015554 | 53 | 106 | 2.0 | 8.0 | 0.00 | 0.00 | 0.00 | 43 | 1010.3 |
| 20260505015057 | 53 | 0 | 1.0 | 5.0 | 0.00 | 0.00 | 0.00 | 42 | 1010.2 |
| 20260505014553 | 54 | 18 | 0.0 | 5.0 | 0.00 | 0.00 | 0.00 | 43 | 1010.1 |
| 20260505014054 | 54 | 330 | 1.0 | 4.0 | 0.00 | 0.00 | 0.00 | 42 | 1010.1 |
| 20260505013554 | 54 | 0 | 0.0 | 4.0 | 0.00 | 0.00 | 0.00 | 42 | 1010.1 |
| 20260505013053 | 54 | 65 | 0.0 | 5.0 | 0.00 | 0.00 | 0.00 | 41 | 1010.0 |
| 20260505012556 | 55 | 0 | 1.0 | 9.0 | 0.00 | 0.00 | 0.00 | 42 | 1010.0 |
| 20260505012055 | 55 | 18 | 2.0 | 9.0 | 0.00 | 0.00 | 0.00 | 41 | 1010.1 |
| 20260505011559 | 55 | 308 | 1.0 | 5.0 | 0.00 | 0.00 | 0.00 | 41 | 1010.1 |
| 20260505011053 | 56 | 118 | 1.0 | 6.0 | 0.00 | 0.00 | 0.00 | 40 | 1010.1 |
| 20260505010553 | 56 | 298 | 1.0 | 6.0 | 0.00 | 0.00 | 0.00 | 38 | 1010.0 |
| 20260505010109 | 56 | 7 | 2.0 | 5.0 | 0.00 | 0.00 | 0.00 | 40 | 1010.0 |
| 20260505005555 | 57 | 28 | 0.0 | 2.0 | 0.00 | 0.00 | 0.00 | 45 | 1010.1 |
| 20260505005052 | 56 | 353 | 0.0 | 1.0 | 0.00 | 0.00 | 0.00 | 44 | 1010.0 |
| 20260505004605 | 56 | 0 | 0.0 | 3.0 | 0.00 | 0.00 | 0.00 | 43 | 1009.9 |
| 20260505004054 | 56 | 0 | 0.0 | 3.0 | 0.00 | 0.00 | 0.00 | 42 | 1010.0 |
| 20260505003555 | 56 | 0 | 0.0 | 2.0 | 0.00 | 0.00 | 0.00 | 42 | 1010.0 |
| 20260505003058 | 57 | 0 | 0.0 | 4.0 | 0.00 | 0.00 | 0.00 | 40 | 1010.1 |
| 20260505002555 | 57 | 131 | 2.0 | 4.0 | 0.00 | 0.00 | 0.00 | 39 | 1010.0 |
| 20260505002054 | 57 | 103 | 0.0 | 3.0 | 0.00 | 0.00 | 0.00 | 41 | 1010.1 |
| 20260505001553 | 58 | 66 | 1.0 | 3.0 | 0.00 | 0.00 | 0.00 | 41 | 1010.1 |
| 20260505001053 | 58 | 31 | 0.0 | 3.0 | 0.00 | 0.00 | 0.00 | 41 | 1010.0 |
| 20260505000551 | 58 | 353 | 1.0 | 5.0 | 0.00 | 0.00 | 0.00 | 40 | 1010.0 |
| 20260505000107 | 58 | 288 | 1.0 | 5.0 | 0.00 | 0.00 | 0.00 | 40 | 1009.9 |
| 20260504235554 | 58 | 0 | 0.0 | 7.0 | 0.00 | 0.00 | 0.00 | 40 | 1010.0 |
| 20260504235054 | 58 | 234 | 1.0 | 7.0 | 0.00 | 0.00 | 0.00 | 41 | 1010.1 |
| 20260504234553 | 57 | 353 | 1.0 | 7.0 | 0.00 | 0.00 | 0.00 | 40 | 1010.2 |
| 20260504234054 | 57 | 54 | 2.0 | 11.0 | 0.00 | 0.00 | 0.00 | 41 | 1010.3 |
| 20260504233552 | 58 | 279 | 1.0 | 11.0 | 0.00 | 0.00 | 0.00 | 39 | 1010.5 |
| 20260504233103 | 59 | 138 | 2.0 | 7.0 | 0.00 | 0.00 | 0.00 | 37 | 1010.5 |
| 20260504232555 | 60 | 122 | 2.0 | 7.0 | 0.00 | 0.00 | 0.00 | 36 | 1010.3 |
| 20260504232054 | 61 | 296 | 1.0 | 6.0 | 0.00 | 0.00 | 0.00 | 33 | 1010.4 |
| 20260504231620 | 61 | 0 | 1.0 | 3.0 | 0.00 | 0.00 | 0.00 | 35 | 1010.1 |
| 20260504231054 | 61 | 288 | 1.0 | 3.0 | 0.00 | 0.00 | 0.00 | 33 | 1010.0 |
| 20260504230555 | 61 | 292 | 0.0 | 6.0 | 0.00 | 0.00 | 0.00 | 33 | 1009.9 |
| 20260504230054 | 60 | 216 | 0.0 | 6.0 | 0.00 | 0.00 | 0.00 | 35 | 1009.9 |
| 20260504225556 | 61 | 324 | 1.0 | 8.0 | 0.00 | 0.00 | 0.00 | 33 | 1010.0 |
| 20260504225056 | 61 | 297 | 1.0 | 8.0 | 0.00 | 0.00 | 0.00 | 32 | 1010.2 |
| 20260504224553 | 61 | 353 | 2.0 | 8.0 | 0.00 | 0.00 | 0.00 | 34 | 1010.1 |
| 20260504224050 | 61 | 7 | 1.0 | 10.0 | 0.00 | 0.00 | 0.00 | 33 | 1009.9 |
| 20260504223554 | 61 | 360 | 0.0 | 10.0 | 0.00 | 0.00 | 0.00 | 30 | 1009.9 |
| 20260504223053 | 62 | 30 | 6.0 | 10.0 | 0.00 | 0.00 | 0.00 | 31 | 1010.1 |
| 20260504222551 | 62 | 13 | 2.0 | 8.0 | 0.00 | 0.00 | 0.00 | 31 | 1009.8 |
| 20260504222051 | 63 | 12 | 3.0 | 7.0 | 0.00 | 0.00 | 0.00 | 29 | 1009.7 |
| 20260504221631 | 65 | 9 | 2.0 | 8.0 | 0.00 | 0.00 | 0.00 | 28 | 1009.8 |
| 20260504221051 | 66 | 37 | 2.0 | 8.0 | 0.00 | 0.00 | 0.00 | 28 | 1009.7 |
| 20260504220551 | 66 | 260 | 2.0 | 8.0 | 0.00 | 0.00 | 0.00 | 28 | 1009.7 |
| 20260504220055 | 67 | 301 | 2.0 | 8.0 | 0.00 | 0.00 | 0.00 | 25 | 1009.7 |
| 20260504215552 | 67 | 282 | 2.0 | 8.0 | 0.00 | 0.00 | 0.00 | 27 | 1009.7 |
| 20260504215051 | 67 | 253 | 2.0 | 7.0 | 0.00 | 0.00 | 0.00 | 27 | 1009.9 |
| 20260504214555 | 69 | 12 | 3.0 | 7.0 | 0.00 | 0.00 | 0.00 | 27 | 1010.1 |
| 20260504214052 | 67 | 3 | 2.0 | 7.0 | 0.00 | 0.00 | 0.00 | 28 | 1009.9 |
| 20260504213551 | 67 | 224 | 2.0 | 5.0 | 0.00 | 0.00 | 0.00 | 29 | 1010.0 |
| 20260504213100 | 67 | 305 | 2.0 | 7.0 | 0.00 | 0.00 | 0.00 | 23 | 1010.1 |
| 20260504212551 | 67 | 302 | 2.0 | 11.0 | 0.00 | 0.00 | 0.00 | 28 | 1010.2 |
| 20260504212050 | 67 | 287 | 1.0 | 11.0 | 0.00 | 0.00 | 0.00 | 31 | 1010.3 |
| 20260504211554 | 65 | 160 | 3.0 | 11.0 | 0.00 | 0.00 | 0.00 | 28 | 1010.3 |
| 20260504211054 | 66 | 214 | 2.0 | 7.0 | 0.00 | 0.00 | 0.00 | 26 | 1010.2 |
| 20260504210552 | 65 | 328 | 2.0 | 7.0 | 0.00 | 0.00 | 0.00 | 30 | 1010.2 |
| 20260504210056 | 64 | 0 | 2.0 | 8.0 | 0.00 | 0.00 | 0.00 | 34 | 1010.3 |
| 20260504205553 | 63 | 153 | 3.0 | 8.0 | 0.00 | 0.00 | 0.00 | 32 | 1010.5 |
| 20260504205054 | 64 | 210 | 1.0 | 6.0 | 0.00 | 0.00 | 0.00 | 31 | 1010.7 |
| 20260504204557 | 63 | 213 | 1.0 | 6.0 | 0.00 | 0.00 | 0.00 | 33 | 1010.8 |
| 20260504204052 | 63 | 305 | 1.0 | 6.0 | 0.00 | 0.00 | 0.00 | 34 | 1010.9 |
| 20260504203556 | 62 | 340 | 2.0 | 6.0 | 0.00 | 0.00 | 0.00 | 36 | 1011.0 |
| 20260504203053 | 62 | 94 | 1.0 | 6.0 | 0.00 | 0.00 | 0.00 | 36 | 1011.0 |
| 20260504202551 | 64 | 200 | 1.0 | 8.0 | 0.00 | 0.00 | 0.00 | 30 | 1011.0 |
| 20260504202051 | 64 | 95 | 2.0 | 11.0 | 0.00 | 0.00 | 0.00 | 34 | 1011.1 |
| 20260504201554 | 62 | 0 | 4.0 | 11.0 | 0.00 | 0.00 | 0.00 | 34 | 1011.1 |
| 20260504201053 | 60 | 54 | 1.0 | 7.0 | 0.00 | 0.00 | 0.00 | 41 | 1011.1 |
| 20260504200552 | 58 | 74 | 2.0 | 7.0 | 0.00 | 0.00 | 0.00 | 43 | 1011.1 |
| 20260504200057 | 57 | 0 | 2.0 | 11.0 | 0.00 | 0.00 | 0.00 | 40 | 1011.3 |
| 20260504195550 | 57 | 38 | 2.0 | 14.0 | 0.00 | 0.00 | 0.00 | 50 | 1011.5 |
| 20260504195050 | 58 | 334 | 6.0 | 14.0 | 0.00 | 0.00 | 0.00 | 39 | 1011.9 |
| 20260504194604 | 61 | 51 | 4.0 | 9.0 | 0.00 | 0.00 | 0.00 | 33 | 1011.4 |
| 20260504194051 | 63 | 348 | 2.0 | 10.0 | 0.00 | 0.00 | 0.00 | 31 | 1011.2 |
| 20260504193552 | 64 | 289 | 2.0 | 10.0 | 0.00 | 0.00 | 0.00 | 31 | 1010.9 |
| 20260504193058 | 68 | 353 | 2.0 | 16.0 | 0.00 | 0.00 | 0.00 | 27 | 1011.2 |
| 20260504192551 | 67 | 103 | 3.0 | 16.0 | 0.00 | 0.00 | 0.00 | 30 | 1010.8 |
| 20260504192054 | 66 | 209 | 3.0 | 10.0 | 0.00 | 0.00 | 0.00 | 29 | 1010.8 |
| 20260504191618 | 66 | 213 | 2.0 | 8.0 | 0.00 | 0.00 | 0.00 | 31 | 1010.8 |
| 20260504191051 | 67 | 221 | 2.0 | 7.0 | 0.00 | 0.00 | 0.00 | 26 | 1011.0 |
| 20260504190554 | 68 | 290 | 2.0 | 7.0 | 0.00 | 0.00 | 0.00 | 31 | 1011.0 |
| 20260504185555 | 65 | 261 | 1.0 | 4.0 | 0.00 | 0.00 | 0.00 | 31 | 1011.2 |
| 20260504185054 | 65 | 25 | 1.0 | 5.0 | 0.00 | 0.00 | 0.00 | 32 | 1011.2 |
| 20260504184606 | 63 | 246 | 1.0 | 5.0 | 0.00 | 0.00 | 0.00 | 33 | 1011.4 |
| 20260504184054 | 62 | 359 | 1.0 | 10.0 | 0.00 | 0.00 | 0.00 | 33 | 1011.4 |
| 20260504183552 | 64 | 277 | 2.0 | 10.0 | 0.00 | 0.00 | 0.00 | 30 | 1011.5 |
| 20260504183054 | 65 | 63 | 2.0 | 9.0 | 0.00 | 0.00 | 0.00 | 30 | 1011.6 |
| 20260504182557 | 66 | 0 | 3.0 | 9.0 | 0.00 | 0.00 | 0.00 | 29 | 1011.5 |
| 20260504182054 | 65 | 228 | 3.0 | 8.0 | 0.00 | 0.00 | 0.00 | 30 | 1011.5 |
| 20260504181604 | 65 | 186 | 2.0 | 6.0 | 0.00 | 0.00 | 0.00 | 29 | 1011.6 |
| 20260504181051 | 64 | 292 | 1.0 | 6.0 | 0.00 | 0.00 | 0.00 | 33 | 1011.8 |
| 20260504180554 | 61 | 155 | 1.0 | 3.0 | 0.00 | 0.00 | 0.00 | 34 | 1011.7 |
| 20260504180100 | 60 | 0 | 0.0 | 3.0 | 0.00 | 0.00 | 0.00 | 36 | 1011.7 |
| 20260504175554 | 60 | 0 | 0.0 | 5.0 | 0.00 | 0.00 | 0.00 | 34 | 1011.9 |
| 20260504175054 | 62 | 0 | 1.0 | 5.0 | 0.00 | 0.00 | 0.00 | 34 | 1011.8 |
| 20260504174556 | 62 | 248 | 1.0 | 5.0 | 0.00 | 0.00 | 0.00 | 34 | 1011.9 |
| 20260504174055 | 62 | 0 | 1.0 | 7.0 | 0.00 | 0.00 | 0.00 | 32 | 1011.9 |
| 20260504173556 | 61 | 143 | 3.0 | 7.0 | 0.00 | 0.00 | 0.00 | 33 | 1012.0 |
| 20260504173104 | 60 | 100 | 1.0 | 3.0 | 0.00 | 0.00 | 0.00 | 38 | 1012.0 |
| 20260504172551 | 59 | 293 | 1.0 | 3.0 | 0.00 | 0.00 | 0.00 | 35 | 1012.1 |
| 20260504172059 | 58 | 332 | 1.0 | 3.0 | 0.00 | 0.00 | 0.00 | 39 | 1012.1 |
| 20260504171604 | 58 | 278 | 0.0 | 4.0 | 0.00 | 0.00 | 0.00 | 38 | 1012.1 |
| 20260504171052 | 58 | 0 | 1.0 | 6.0 | 0.00 | 0.00 | 0.00 | 36 | 1012.1 |
| 20260504170554 | 58 | 130 | 0.0 | 7.0 | 0.00 | 0.00 | 0.00 | 40 | 1012.2 |
| 20260504151050 | 49 | 141 | 1.0 | 5.0 | 0.00 | 0.00 | 0.00 | 55 | 1013.0 |
| 20260504150553 | 50 | 106 | 2.0 | 5.0 | 0.00 | 0.00 | 0.00 | 57 | 1013.2 |
| 20260504141056 | 41 | 135 | 1.0 | 4.0 | 0.00 | 0.00 | 0.00 | 71 | 1013.5 |
| 20260504140552 | 39 | 118 | 1.0 | 4.0 | 0.00 | 0.00 | 0.00 | 76 | 1013.5 |
| 20260504140106 | 38 | 0 | 0.0 | 1.0 | 0.00 | 0.00 | 0.00 | 77 | 1013.6 |
| 20260504130553 | 29 | 0 | 0.0 | 0.0 | 0.00 | 0.00 | 0.00 | 85 | 1013.5 |
| 20260504110551 | 31 | 0 | 0.0 | 1.0 | 0.00 | 0.00 | 0.00 | 82 | 1013.6 |
| 20260504100551 | 32 | 0 | 0.0 | 0.0 | 0.00 | 0.00 | 0.00 | 79 | 1013.4 |
| 20260504081556 | 35 | 0 | 0.0 | 0.0 | 0.00 | 0.00 | 0.00 | 75 | 1013.7 |
| 20260504081053 | 35 | 0 | 0.0 | 1.0 | 0.00 | 0.00 | 0.00 | 77 | 1013.8 |
| 20260504080552 | 34 | 0 | 0.0 | 1.0 | 0.00 | 0.00 | 0.00 | 78 | 1013.9 |
| 20260504060105 | 38 | 0 | 0.0 | 0.0 | 0.00 | 0.00 | 0.00 | 72 | 1014.0 |
| 20260504050550 | 41 | 0 | 0.0 | 0.0 | 0.00 | 0.00 | 0.00 | 66 | 1014.3 |
| 20260504045552 | 41 | 0 | 0.0 | 1.0 | 0.00 | 0.00 | 0.00 | 65 | 1014.3 |
| 20260504045052 | 41 | 0 | 0.0 | 1.0 | 0.00 | 0.00 | 0.00 | 66 | 1014.3 |
| 20260504044555 | 40 | 0 | 0.0 | 1.0 | 0.00 | 0.00 | 0.00 | 66 | 1014.4 |
| 20260504044053 | 40 | 0 | 0.0 | 0.0 | 0.00 | 0.00 | 0.00 | 67 | 1014.3 |
| 20260504043555 | 41 | 0 | 0.0 | 0.0 | 0.00 | 0.00 | 0.00 | 66 | 1014.4 |
| 20260504043058 | 41 | 0 | 0.0 | 0.0 | 0.00 | 0.00 | 0.00 | 66 | 1014.3 |
| 20260504042554 | 42 | 0 | 0.0 | 0.0 | 0.00 | 0.00 | 0.00 | 65 | 1014.3 |
| 20260504042056 | 42 | 0 | 0.0 | 0.0 | 0.00 | 0.00 | 0.00 | 65 | 1014.4 |
| 20260504041559 | 41 | 0 | 0.0 | 0.0 | 0.00 | 0.00 | 0.00 | 65 | 1014.5 |
| 20260504041053 | 41 | 0 | 0.0 | 0.0 | 0.00 | 0.00 | 0.00 | 64 | 1014.4 |
| 20260504040553 | 42 | 0 | 0.0 | 1.0 | 0.00 | 0.00 | 0.00 | 65 | 1014.4 |
| 20260504040105 | 43 | 0 | 0.0 | 1.0 | 0.00 | 0.00 | 0.00 | 62 | 1014.4 |
| 20260504035553 | 43 | 0 | 0.0 | 1.0 | 0.00 | 0.00 | 0.00 | 64 | 1014.4 |
| 20260504035053 | 42 | 28 | 0.0 | 2.0 | 0.00 | 0.00 | 0.00 | 65 | 1014.5 |
| 20260504034606 | 42 | 28 | 0.0 | 2.0 | 0.00 | 0.00 | 0.00 | 62 | 1014.4 |
| 20260504034052 | 43 | 20 | 0.0 | 1.0 | 0.00 | 0.00 | 0.00 | 62 | 1014.3 |
| 20260504033553 | 43 | 0 | 0.0 | 1.0 | 0.00 | 0.00 | 0.00 | 61 | 1014.3 |
| 20260504033102 | 44 | 0 | 0.0 | 1.0 | 0.00 | 0.00 | 0.00 | 61 | 1014.2 |
| 20260504032553 | 45 | 0 | 0.0 | 0.0 | 0.00 | 0.00 | 0.00 | 60 | 1014.1 |
| 20260504032053 | 45 | 0 | 0.0 | 0.0 | 0.00 | 0.00 | 0.00 | 59 | 1014.2 |
| 20260504031605 | 44 | 0 | 0.0 | 0.0 | 0.00 | 0.00 | 0.00 | 59 | 1014.1 |
| 20260504031052 | 46 | 0 | 0.0 | 0.0 | 0.00 | 0.00 | 0.00 | 57 | 1014.1 |
| 20260504030553 | 46 | 0 | 0.0 | 2.0 | 0.00 | 0.00 | 0.00 | 57 | 1014.1 |
| 20260504030114 | 47 | 0 | 0.0 | 2.0 | 0.00 | 0.00 | 0.00 | 56 | 1014.1 |
| 20260504025553 | 47 | 0 | 0.0 | 2.0 | 0.00 | 0.00 | 0.00 | 54 | 1014.0 |
| 20260504025055 | 48 | 0 | 0.0 | 1.0 | 0.00 | 0.00 | 0.00 | 52 | 1014.0 |
| 20260504024556 | 47 | 0 | 0.0 | 0.0 | 0.00 | 0.00 | 0.00 | 51 | 1013.9 |
| 20260504024055 | 48 | 0 | 0.0 | 0.0 | 0.00 | 0.00 | 0.00 | 49 | 1013.9 |
| 20260504023553 | 49 | 0 | 0.0 | 0.0 | 0.00 | 0.00 | 0.00 | 48 | 1013.9 |
| 20260504023054 | 50 | 0 | 0.0 | 1.0 | 0.00 | 0.00 | 0.00 | 47 | 1013.9 |